Regional Weather Roundup
Issued by NWS

Home | Current Version | Previous Version | Text Only | Print | Product List | Glossary Off
Versions: 1 2 3 4 5 6 7 8 9 10 11 12 13 14 15 16 17 18 19 20 21 22 23 24 25 26 27 28 29 30 31 32 33 34 35 36 37 38 39 40 41 42 43 44 45 46 47 48 49 50

000
ASUS45 KPSR 280010
RWRAZ

ARIZONA HOURLY REGIONAL WEATHER ROUNDUP
NATIONAL WEATHER SERVICE PHOENIX AZ
500 PM MST SAT MAY 27 2017

NOTE: FAIR INDICATES FEW OR NO CLOUDS BELOW 12,000 FEET WITH NO
SIGNIFICANT WEATHER AND/OR OBSTRUCTIONS TO VISIBILITY.

AZZ001>003-036-280100-
NORTHWEST ARIZONA

CITY           SKY/WX    TMP DP  RH WIND       PRES   REMARKS
BULLHEAD CITY  SUNNY     97  21   6 W6        29.84S
KINGMAN        SUNNY     86  26  11 W12G20    30.00F
6HR MIN TEMP:  80; 6HR MAX TEMP:  87;

$$

AZZ004>008-015-016-018-280100-
NORTH CENTRAL ARIZONA

CITY           SKY/WX    TMP DP  RH WIND       PRES   REMARKS
GRAND CANYON   PTSUNNY   71  23  16 NW7       30.18S
6HR MIN TEMP:  66; 6HR MAX TEMP:  74;

WILLIAMS       MOSUNNY   70  25  18 SW6G14    30.18S
PRESCOTT       SUNNY     77  19  11 VRB3      30.09F
6HR MIN TEMP:  74; 6HR MAX TEMP:  81;

FLAGSTAFF      MOSUNNY   71  18  13 W12G20    30.18S
6HR MIN TEMP:  65; 6HR MAX TEMP:  72;

PAYSON         SUNNY     79  18  10 SW9       30.12F
PAGE           MOSUNNY   83  29  14 N8        30.02S
6HR MIN TEMP:  74; 6HR MAX TEMP:  83;

$$

AZZ009>014-017-280100-
NORTHEAST ARIZONA

CITY           SKY/WX    TMP DP  RH WIND       PRES   REMARKS
WINSLOW        MOSUNNY   82  21  10 NW14      30.04S
6HR MIN TEMP:  76; 6HR MAX TEMP:  85;

SAINT JOHNS    SUNNY     77  15   9 VRB5      30.07S
6HR MIN TEMP:  72; 6HR MAX TEMP:  82;

WINDOW ROCK    MOSUNNY   75  16  10 W9        30.15S
6HR MIN TEMP:  68; 6HR MAX TEMP:  77;

SHOW LOW       SUNNY     73  19  13 S14G20    30.15F
$$

AZZ540-542>544-546-548-280100-
GREATER PHOENIX AREA

CITY           SKY/WX    TMP DP  RH WIND       PRES   REMARKS
PHOENIX        MOSUNNY   95  27   9 W10       29.85F
6HR MIN TEMP:  85; 6HR MAX TEMP:  96;

BUCKEYE        SUNNY     93  28  10 CALM      29.86F
GLENDALE       MOSUNNY   95  30  10 CALM      29.86F
LUKE AFB       SUNNY     96  27   8 W9        29.84F
6HR MIN TEMP:  86; 6HR MAX TEMP:  96;

DEER VALLEY    SUNNY     93  26   9 W6        29.87F
6HR MIN TEMP:  85; 6HR MAX TEMP:  94;

SCOTTSDALE     SUNNY     93  24   8 VRB3      29.89F
6HR MIN TEMP:  86; 6HR MAX TEMP:  95;

MESA-FALCON    SUNNY     93  30  10 W10       29.88F
MESA-GATEWAY   SUNNY     93  25   8 NW9       29.88F
CHANDLER       SUNNY     95  25   8 SW8       29.86F
$$

AZZ539-553-280100-
SOUTHWEST MARICOPA COUNTY AND PINAL COUNTY

CITY           SKY/WX    TMP DP  RH WIND       PRES   REMARKS
CASA GRANDE    SUNNY     94  24   8 VRB6      29.88F
6HR MIN TEMP:  84; 6HR MAX TEMP:  94;

GILA BEND      FAIR      96  28   8 NW10      29.84F
6HR MIN TEMP:  87; 6HR MAX TEMP:  96;

$$

AZZ503-504-507>509-280100-
SOUTHEAST ARIZONA

CITY           SKY/WX    TMP DP  RH WIND       PRES   REMARKS
TUCSON         SUNNY     94  11   4 N9        29.93F
6HR MIN TEMP:  85; 6HR MAX TEMP:  96;

DAVIS-MONTHAN  SUNNY     92  12   5 NW15G21   29.92F
6HR MIN TEMP:  85; 6HR MAX TEMP:  94;

RYAN FIELD     SUNNY     93  14   5 N12G17    29.92F
NOGALES        SUNNY     89   7   4 W9        30.01F
6HR MIN TEMP:  84; 6HR MAX TEMP:  91;

SIERRA VISTA   SUNNY     86   6   5 SW14G22   30.07S
6HR MIN TEMP:  82; 6HR MAX TEMP:  88;

DOUGLAS        SUNNY     89   7   4 W18G26    30.01S
6HR MIN TEMP:  84; 6HR MAX TEMP:  92;

SAFFORD        SUNNY     92   8   4 N9        29.91F
6HR MIN TEMP:  83; 6HR MAX TEMP:  94;

$$

AZZ532-280100-
SOUTHWEST ARIZONA

CITY           SKY/WX    TMP DP  RH WIND       PRES   REMARKS
YUMA           SUNNY     95  40  14 W8        29.84F
6HR MIN TEMP:  84; 6HR MAX TEMP:  96;

$$

CAZ041-043-047-048-061-525>527-560>570-280100-
SOUTHERN CALIFORNIA

CITY           SKY/WX    TMP DP  RH WIND       PRES   REMARKS
DOWNTOWN L.A.  SUNNY     69  51  52 W5        30.02F
6HR MIN TEMP:  68; 6HR MAX TEMP:  72;

L.A. AIRPORT   MOSUNNY   67  52  58 W16       30.03F
6HR MIN TEMP:  65; 6HR MAX TEMP:  68;

SAN DIEGO      MOSUNNY   68  51  54 NW13      30.06S
6HR MIN TEMP:  66; 6HR MAX TEMP:  70;

BURBANK        SUNNY     71  49  45 SE12      30.01F
6HR MIN TEMP:  65; 6HR MAX TEMP:  72;

ONTARIO        SUNNY     76  50  40 W15G22    30.00S
6HR MIN TEMP:  66; 6HR MAX TEMP:  79;

RIVERSIDE      SUNNY     76  51  41 W13G21    29.99S
6HR MIN TEMP:  66; 6HR MAX TEMP:  79;

PALM SPRINGS   SUNNY     95  39  14 N12G21    29.87F
6HR MIN TEMP:  85; 6HR MAX TEMP:  97;

IMPERIAL       SUNNY     94  42  16 VRB5      29.82F
6HR MIN TEMP:  82; 6HR MAX TEMP:  95;

BLYTHE         SUNNY     95  38  13 S6        29.84F
6HR MIN TEMP:  84; 6HR MAX TEMP:  97;

NEEDLES        SUNNY     99  26   7 N6        29.85F
6HR MIN TEMP:  88; 6HR MAX TEMP: 100;

$$

NVZ020-UTZ003-280100-
SOUTHERN NEVADA-UTAH

CITY           SKY/WX    TMP DP  RH WIND       PRES   REMARKS
LAS VEGAS      MOSUNNY   89  21   8 VRB3      29.92F
6HR MIN TEMP:  83; 6HR MAX TEMP:  91;

SALT LAKE CITY MOSUNNY   70  35  27 NW5       30.20S
6HR MIN TEMP:  63; 6HR MAX TEMP:  71;

$$

NMZ009-TXZ055-280100-
NEW MEXICO-WEST TEXAS

CITY           SKY/WX    TMP DP  RH WIND       PRES   REMARKS
ALBUQUERQUE    MOSUNNY   83   9   6 SW15      30.01S
6HR MIN TEMP:  74; 6HR MAX TEMP:  84;

EL PASO        MOSUNNY   92  22   8 SW21G28   29.93F
6HR MIN TEMP:  86; 6HR MAX TEMP:  94;

$$


........................KEY........................
SKY/WX - SKY CONDITION/WEATHER
TMP    - TEMPERATURE IN FAHRENHEIT
DP     - DEW POINT IN FAHRENHEIT
RH     - RELATIVE HUMIDITY IN PERCENT
WIND   - DIRECTION AND SPEED IN MILES PER HOUR (MPH)
VRB    - VARIABLE WIND DIRECTION
PRES   - MEAN SEA LEVEL PRESSURE IN INCHES OF MERCURY
         F - FALLING PRESSURE   R - RISING PRESSURE
         S - STEADY PRESSURE
VSB    - VISIBILITY IN MILES
HX     - HEAT INDEX IN FAHRENHEIT
WCI    - WIND CHILL INDEX IN FAHRENHEIT
TC     - TEMPERATURE IN CELSIUS WHICH IS ALSO KNOWN AS
         TEMPERATURE IN CENTIGRADE
AFB    - AIR FORCE BASE
         LUKE AFB IS LUKE AIR FORCE BASE
         DAVIS-MONTHAN IS DAVIS-MONTHAN AIR FORCE BASE
NAS    - NAVAL AIR STATION
         EL CENTRO NAS IS EL CENTRO NAVAL AIR STATION
N/A    - NOT AVAILABLE




USA.gov is the U.S. government's official web portal to all federal, state and local government web resources and services.